Location: Erdweis
(48.5167°N, 15.3500°E)
Time: 18:39:07
(UTC+00:00)

Daily predictions for brighter satellites

Satellite Brightness Start Highest point End
(mag) Time Altitude Azimuth Time Altitude Azimuth Time Altitude Azimuth
Cosmos 968 Rocket 3.9 18:53:12 10° S 18:58:05 41° ESE 19:02:59 10° NE
FALCON 9 DEB 3.1 18:55:49 10° WNW 18:58:50 59° SSW 19:01:50 10° SE
Meteor 2-15 Rocket 4.4 18:56:41 10° S 19:02:45 82° E 19:08:52 10° NNE
USA 306 4.2 18:58:59 10° WNW 19:03:00 39° N 19:07:02 10° ENE
Cosmos 1437 Rocket 3.2 19:02:11 10° SSE 19:05:47 39° E 19:09:29 10° NNE
Gbstr 26 Del rocket 4.4 18:57:45 10° WSW 19:05:47 82° SSE 19:12:51 10° ENE
X-37B 1.1 19:05:06 10° WSW 19:08:09 42° S 19:11:12 10° ESE
BREEZE-M R/B 3.1 19:07:10 10° SSW 19:09:18 21° SSE 19:11:14 10° E
MOS 1 4.5 19:04:56 10° SSE 19:10:37 80° WSW 19:16:20 10° NNW
Cosmos 1842 Rocket 4.1 19:07:53 10° SSW 19:12:20 67° W 19:16:50 10° N
Cosmos 2082 Rocket 4.4 19:09:47 10° N 19:12:48 14° NNE 19:15:48 10° ENE
SL-08 ROCKET BODY 4.4 19:07:01 10° N 19:12:58 84° E 19:18:50 10° S
Landsat 7 4.2 19:09:58 10° SE 19:14:34 51° ENE 19:19:11 10° N
Cosmos 1782 4.4 19:14:35 11° SE 19:17:13 19° E 19:20:01 10° NE
USA 215 4.4 19:11:25 10° ENE 19:17:29 43° N 19:23:34 10° WNW
CREW DRAGON DEMO-1 DEB 3.6 19:16:49 10° W 19:19:22 42° N 19:21:57 10° ENE
Cosmos 1386 Rocket 4.5 19:15:12 10° N 19:21:12 66° ENE 19:27:14 10° SSE
ARIANE 5 R/B 3.7 19:20:03 12° ESE 19:23:29 29° ENE 19:27:13 10° N
Cosmos 1242 Rocket 3.5 19:21:33 11° SSE 19:24:34 28° E 19:27:40 10° NNE
Cosmos 1805 Rocket 3.5 19:21:13 10° N 19:25:35 76° ENE 19:29:55 10° SSE
Cosmos 1745 Rocket 4.0 19:19:51 10° N 19:26:07 74° E 19:32:15 10° SSE
DELTA 2 R/B (1) 4.4 19:21:29 10° WSW 19:26:24 32° S 19:30:34 13° SE
USA 307 4.2 19:23:57 10° WNW 19:27:59 39° N 19:32:01 10° ENE
Cosmos 1709 Rocket 4.4 19:23:06 10° N 19:29:01 47° ENE 19:34:21 13° SE
Cosmos 1633 Rocket 3.8 19:30:40 10° N 19:34:47 37° ENE 19:37:53 16° SE
Spot 2 Rocket 4.0 19:31:27 14° SE 19:35:34 44° ENE 19:40:22 10° N
Resurs 1-3 4.5 19:31:45 10° S 19:35:59 49° W 19:40:17 10° NNW
Meteor 1-25 Rocket 4.4 19:30:49 10° N 19:36:40 70° ENE 19:42:09 12° SSE
OBJECT-B 3.6 19:37:44 10° SW 19:40:01 18° W 19:42:17 10° NW
Cosmos 2278 Rocket 3.8 19:39:21 14° ESE 19:40:51 15° E 19:43:53 10° ENE
Cosmos 1602 4.2 19:37:09 10° N 19:40:52 45° ENE 19:43:27 18° SE
USA 308 4.2 19:37:27 10° WNW 19:41:31 39° N 19:45:34 10° ENE
Cosmos 2315 Rocket 4.4 19:37:45 10° SSE 19:43:45 47° E 19:49:49 10° NNE
S3M 4.0 19:40:15 10° S 19:46:39 86° E 19:53:02 10° N
OE (NEXTSAT) 4.4 19:43:54 10° WSW 19:47:18 55° S 19:49:43 18° ESE
Cosmos 1328 Rocket 4.4 19:44:44 17° SE 19:47:29 33° E 19:51:29 10° NNE
SL-4 R/B 3.1 19:45:07 10° WNW 19:49:13 37° SW 19:52:14 17° SSE
Cosmos 2263 Rocket 4.5 19:45:42 10° WSW 19:50:26 28° NW 19:55:14 10° NNE
Cosmos 1606 3.9 19:47:32 10° SSW 19:51:08 42° WNW 19:54:45 10° N
Cosmos 1503 Rocket 4.1 19:46:16 10° S 19:51:17 54° ESE 19:56:21 10° NNE
SOZ 4.3 19:49:12 10° WSW 19:52:01 84° NNW 19:54:15 10° ENE
CARTOSAT-1 3.9 19:50:28 19° SE 19:53:17 49° ENE 19:57:27 10° N
ERS-1 Rocket 3.6 19:51:03 18° SE 19:54:24 43° ENE 19:59:10 10° N
Cosmos 1844 Rocket 2.7 19:49:40 10° SSW 19:55:15 87° WNW 20:00:53 10° NNE
Cosmos 1666 Rocket 3.5 19:55:05 10° N 19:59:32 79° E 20:02:37 19° SSE
IGS 5A 4.2 19:57:48 10° S 20:01:47 49° W 20:05:51 10° NNW
MetOp-B 4.3 19:57:54 12° S 20:02:49 71° WSW 20:08:11 10° NNW
Meteor 2-17 Rocket 4.4 19:57:00 10° N 20:03:13 86° E 20:08:20 16° S
USA 245 1.9 20:04:37 42° S 20:05:15 83° WSW 20:07:31 10° NNW
SPOT 5 3.3 20:04:34 22° SE 20:07:41 54° ENE 20:12:48 10° N
Intercosmos 24 4.3 20:04:05 10° SSW 20:07:54 56° WNW 20:11:26 10° N
Resurs 01 Rocket 2.9 20:06:49 10° SSW 20:10:57 37° W 20:15:06 10° NNW
SPOT 1/Viking Rocket 3.7 20:07:26 16° S 20:11:39 74° WSW 20:16:52 10° NNW
Cosmos 1812 3.6 20:11:10 27° ESE 20:12:10 31° E 20:15:37 10° NNE
Cosmos 1844 3.8 20:06:31 10° SSW 20:12:15 80° WNW 20:17:58 10° NNE
CZ-4C R/B 3.2 20:05:48 10° NW 20:12:44 63° NE 20:18:51 19° ESE
Meteor 1-26 Rocket 4.2 20:10:10 10° S 20:15:54 81° E 20:21:30 10° NNE
Meteor 1-14 Rocket 4.3 20:10:37 10° N 20:16:33 72° ENE 20:20:15 23° SSE
USA 290 3.1 20:13:41 10° NW 20:16:48 42° WSW 20:18:18 24° SSW
ATLAS 5 CENTAUR R/B 2.4 20:14:44 10° NW 20:20:16 74° SW 20:24:16 24° SSE
Terra 2.2 20:19:12 26° SE 20:21:34 51° ENE 20:26:12 10° N
Cosmos 1354 Rocket 3.9 20:16:40 10° SSW 20:21:54 83° ESE 20:27:10 10° NNE
USA 305 3.8 20:20:15 10° WNW 20:24:23 47° NNE 20:27:46 15° E
Sich 1 4.4 20:20:31 10° NNW 20:24:28 35° W 20:28:19 10° SSW
SJ 16-02 2.7 20:24:22 22° ESE 20:24:32 22° E 20:27:58 10° NE
Cosmos 1933 4.4 20:21:46 10° SSW 20:25:39 45° WNW 20:29:34 10° N
Cosmos 1833 Rocket 3.0 20:21:36 10° NNW 20:27:12 58° ENE 20:30:16 26° SE
SWARM C 4.4 20:26:37 10° N 20:29:57 78° E 20:30:49 46° SSE
SWARM A 4.1 20:26:44 10° N 20:30:03 81° E 20:30:58 45° S
Akebono 4.0 20:28:28 10° NNW 20:31:00 74° WNW 20:31:00 74° WNW
Cosmos 1666 3.1 20:30:09 10° N 20:33:47 46° ENE 20:34:37 38° ESE
NOSS 3-4 (A) 4.3 20:31:06 10° NW 20:37:44 53° NE 20:43:09 19° ESE
NOSS 3-4 (C) 4.3 20:31:12 10° NW 20:37:50 53° NE 20:43:16 19° ESE
USA 306 3.5 20:39:20 10° WNW 20:43:32 53° NNE 20:46:05 22° E
X-37B 1.8 20:41:32 10° W 20:43:44 30° SW 20:43:44 30° SW
NOSS 3-3 (A) 3.8 20:41:58 10° SSW 20:47:42 72° SE 20:54:17 10° NE
BREEZE-M DEB (TANK) 2.0 20:45:44 10° WNW 20:47:14 45° WNW 20:47:14 45° WNW
NOSS 3-3 (C) 3.8 20:42:05 10° SSW 20:47:49 72° SE 20:54:24 10° NE
Cosmos 1151 Rocket 3.9 20:46:12 14° SSW 20:49:46 48° WNW 20:54:02 10° N
H-2A R/B 3.4 20:45:39 10° NNE 20:49:50 65° ESE 20:50:59 44° SSE
ATLAS 2AS CENTAUR R/B 3.7 20:44:04 10° NW 20:51:15 44° NNE 20:56:49 15° E
COSMOS 2406 3.1 20:46:38 10° NNW 20:52:21 85° ENE 20:54:50 35° SSE
Cosmos 1782 4.0 20:50:08 14° SW 20:53:13 41° WNW 20:57:01 10° N
Meteor 2-6 Rocket 4.0 20:50:49 30° S 20:53:34 76° E 20:59:03 10° NNE
CREW DRAGON DEMO-1 DEB 3.3 20:51:25 10° WNW 20:53:54 48° N 20:53:54 48° N
Cosmos 1538 Rocket 4.0 20:51:11 10° NNW 20:56:36 83° ENE 20:58:41 38° SSE
Cosmos 2082 Rocket 2.6 20:52:43 10° NNW 20:58:14 53° NE 21:00:42 31° ESE
USA 215 3.9 20:53:33 10° E 20:59:50 52° NNE 21:06:08 10° NW
ARIANE 5 R/B 3.9 20:57:35 20° SSW 20:59:52 33° W 21:03:49 10° NNW
Cosmos 1437 3.8 21:02:00 32° W 21:02:32 35° WNW 21:05:12 10° N
Cosmos 1500 4.2 20:59:29 10° NNW 21:03:00 38° W 21:04:13 29° SW
Cosmos 1515 Rocket 3.6 21:01:07 34° SSW 21:03:00 75° W 21:07:26 10° N
Cosmos 2154 Rocket 4.1 20:56:56 10° N 21:03:14 63° ENE 21:05:55 35° SE
Meteor 1-11 Rocket 3.9 20:59:19 10° N 21:05:18 71° ENE 21:07:42 38° SSE
Cosmos 1869 Rocket 3.8 21:01:30 10° N 21:05:45 53° ENE 21:06:32 46° ESE
USA 307 3.2 21:04:12 10° WNW 21:08:28 64° NNE 21:10:04 36° E
Iridium 4 Rocket 3.8 21:05:32 30° S 21:08:29 80° W 21:14:26 10° N
Cosmos 2184 Rocket 4.0 21:05:12 10° N 21:11:29 83° W 21:14:20 35° S
Cosmos 2084 3.3 21:12:45 35° SW 21:14:27 88° SE 21:18:44 10° NE
Cosmos 1271 Rocket 2.6 21:14:00 66° SSE 21:14:29 81° ESE 21:18:32 10° NNE
Cosmos 1680 Rocket 4.2 21:09:49 10° NNW 21:14:55 44° ENE 21:16:49 32° ESE
Cosmos 158 Rocket 3.8 21:12:21 10° NNW 21:17:16 77° ENE 21:18:31 50° SE
ALOS 2 4.2 21:17:53 22° E 21:18:57 24° ENE 21:22:27 10° N
Cosmos 1340 Rocket 3.6 21:16:06 10° N 21:19:58 40° ENE 21:20:18 39° E
Cosmos 2074 Rocket 4.2 21:14:19 10° NNW 21:20:36 70° W 21:23:33 33° S
USA 308 3.0 21:17:38 10° WNW 21:21:57 73° NNE 21:23:00 49° E
Cosmos 2278 Rocket 2.1 21:21:07 30° SSW 21:24:03 87° ESE 21:29:46 10° NNE
Cosmos 1707 Rocket 4.3 21:26:10 36° E 21:26:10 36° E 21:30:12 10° NNE
Cosmos 1536 2.7 21:23:54 10° N 21:27:58 78° ENE 21:28:14 73° SE
deb Kosmos-1763 4.4 21:25:46 10° NNW 21:29:03 51° W 21:29:03 51° W
Nadezhda 1 Rocket 3.9 21:27:37 38° S 21:30:15 83° E 21:36:34 10° N
Meteor 1-10 Rocket 4.3 21:28:43 32° SSW 21:31:22 72° WNW 21:37:01 10° N
ERS-1 Rocket 4.5 21:31:02 20° SW 21:33:21 28° W 21:37:41 10° NW
Cosmos 2369 Rocket 4.2 21:37:02 12° E 21:37:02 12° E 21:38:53 10° ENE
Cosmos 1544 3.2 21:43:47 10° N 21:47:00 69° NNW 21:47:00 69° NNW
Cosmos 1943 Rocket 3.2 21:49:38 29° ESE 21:49:38 29° ESE 21:54:21 10° NE
Cosmos 923 Rocket 3.9 21:44:29 10° NNW 21:49:46 80° WSW 21:50:49 58° S
Cosmos 2341 Rocket 4.0 21:46:05 10° N 21:52:30 76° E 21:54:31 46° SSE
Cosmos 1898 Rocket 3.7 21:54:06 51° ESE 21:54:30 52° ESE 21:59:41 10° NNE
Cosmos 2228 Rocket 3.7 21:55:41 40° WSW 21:56:43 49° WNW 22:01:03 10° N
Cosmos 2366 rocket 4.3 21:50:45 10° N 21:56:47 53° ENE 21:58:38 40° SE
Terra 3.6 21:58:05 19° WSW 21:59:36 22° W 22:03:18 10° NW
Cosmos 1733 Rocket 3.1 21:55:20 10° N 21:59:40 65° ENE 21:59:46 64° E
CZ-4C R/B 3.6 21:54:29 10° NW 22:01:21 43° WSW 22:04:01 34° SSW
SJ 16-02 2.3 22:01:17 32° WSW 22:02:50 44° WNW 22:07:07 10° N
ATLAS 5 CENTAUR R/B 4.3 22:00:52 10° WNW 22:04:24 16° WSW 22:05:48 15° SW
USA 305 3.2 22:00:16 10° WNW 22:03:49 54° W 22:03:49 54° W
Spot 4 3.8 22:06:45 64° SSW 22:07:22 75° WSW 22:12:16 10° NNW
Cosmos 1833 Rocket 4.0 22:06:09 10° NW 22:10:46 26° WSW 22:11:58 24° WSW
Cosmos 1743 3.1 22:07:34 10° NNW 22:11:01 59° WNW 22:11:01 59° WNW
Cosmos 2218 Rocket 4.0 22:07:06 10° N 22:13:22 72° E 22:15:08 49° SSE
COBE Rocket 4.1 22:14:57 53° ESE 22:15:47 61° ENE 22:20:50 10° N
Cosmos 2297 3.7 22:17:33 57° SSE 22:18:18 63° ESE 22:23:56 10° NNE
Cosmos 990 Rocket 4.0 22:19:53 58° SW 22:20:56 81° WNW 22:26:15 10° NNE
USA 306 4.0 22:19:23 10° WNW 22:22:09 35° W 22:22:09 35° W
SL-24 R/B - RUBIN 2 3.8 22:18:30 10° NW 22:24:07 88° NE 22:24:49 67° SE
Cosmos 2112 Rocket 4.2 22:23:20 10° NNW 22:28:36 59° WSW 22:29:12 55° SW
NOSS 3-4 (A) 4.2 22:22:04 10° NW 22:28:47 49° WSW 22:30:35 41° SSW
NOSS 3-4 (C) 4.2 22:22:09 10° NW 22:28:53 49° WSW 22:30:42 41° SSW
Cosmos 372 Rocket 4.4 22:31:46 44° ESE 22:31:46 44° ESE 22:36:35 10° NE
Cosmos 1703 Rocket 4.3 22:40:05 40° E 22:40:05 40° E 22:43:58 10° NNE
Cosmos 1862 Rocket 3.5 22:40:02 73° WNW 22:40:02 73° WNW 22:44:20 10° N
Gbstr 26 Del rocket 4.0 22:34:08 10° WNW 22:41:21 82° NNE 22:45:49 18° ESE
Cosmos 1782 Rocket 4.5 22:37:22 10° N 22:41:35 39° ENE 22:41:57 38° E
SeaSat 1 2.8 22:37:03 10° NE 22:41:44 48° ESE 22:41:44 48° ESE
Cosmos 2082 Rocket 3.3 22:37:19 10° NW 22:42:02 28° WSW 22:42:32 28° WSW
ATLAS 2AS CENTAUR R/B 2.8 22:35:19 10° NW 22:42:35 62° WSW 22:44:14 49° S
USA 215 3.1 22:40:07 41° SE 22:42:41 78° SW 22:49:15 10° WNW
Cosmos 44 3.4 22:39:03 10° NW 22:44:29 71° SW 22:44:53 68° SSW
SL-8 Rocket 4.2 22:38:53 10° NNW 22:45:06 60° W 22:46:43 46° SW
Cosmos 1461 4.2 22:48:41 34° E 22:48:41 34° E 22:52:04 10° NE
Meteor 1-19 Rocket 4.1 22:47:54 59° SW 22:48:53 76° WNW 22:54:18 10° N
SL-08 R/B 4.5 22:43:54 10° N 22:50:07 78° E 22:51:44 52° SSE
PSLV R/B 4.5 22:47:47 10° NNE 22:51:43 38° E 22:51:43 38° E
Okean 1 4.1 22:52:12 44° WNW 22:52:12 44° WNW 22:55:55 10° N
Cosmos 1238 Rocket 4.3 22:47:07 10° NNW 22:53:16 49° W 22:54:36 42° SW
ALOS 2 3.3 22:55:16 42° W 22:55:16 42° W 22:59:15 10° NNW
Cosmos 1818 3.4 22:52:58 10° NW 22:58:28 77° SW 22:59:08 67° S
Thor Agena Rocket 3.4 22:53:36 10° NNE 22:58:51 80° ESE 22:59:32 67° S
Resurs 1-4 Rocket 4.4 22:58:44 10° ENE 23:00:11 11° E 23:01:38 10° E
DNEPR-1 R/B 4.0 23:00:00 65° SSW 23:00:49 80° SE 23:05:48 10° NE
Cosmos 1937 Rocket 3.7 23:02:14 50° WSW 23:03:16 61° WNW 23:08:25 10° NNE
Cosmos 2084 Rocket 3.8 23:02:23 10° NW 23:05:57 58° WNW 23:05:57 58° WNW
Cosmos 2278 Rocket 4.3 23:04:35 10° W 23:08:55 22° NW 23:13:16 10° N
Cosmos 1048 Rocket 4.2 23:06:01 10° NNW 23:11:23 69° ENE 23:12:35 51° SE
RESURS DK-1 3.2 23:07:28 10° NNW 23:11:30 45° NE 23:12:06 42° E
Meteor 1-12 Rocket 4.4 23:05:46 10° N 23:11:43 68° ENE 23:13:17 48° SE
ISS -0.8 23:16:28 10° ENE 23:16:28 10° ENE 23:16:32 10° ENE
Meteor 1-13 Rocket 4.4 23:15:22 50° SE 23:16:22 58° E 23:21:48 10° NNE
Cosmos 1975 4.0 23:13:06 10° NNW 23:16:07 33° WNW 23:16:07 33° WNW
Okean 1-7 2.9 23:17:43 81° NNW 23:17:43 81° NNW 23:21:49 10° N
Cosmos 2242 Rocket 3.5 23:18:18 77° W 23:18:18 77° W 23:22:45 10° N
Cosmos 2239 Rocket 4.5 23:12:16 10° N 23:18:36 80° E 23:20:27 49° SSE
Cosmos 2369 Rocket 2.1 23:18:48 62° S 23:19:41 76° ESE 23:25:21 10° NNE
Okean 3 3.8 23:20:34 55° E 23:20:34 55° E 23:24:38 10° NNE
Helios 1A 3.8 23:22:40 40° E 23:23:13 43° ENE 23:27:10 10° N
Cosmos 1378 3.7 23:26:03 53° NE 23:26:03 53° NE 23:29:05 10° NNE
Cosmos 1805 4.1 23:22:13 10° N 23:25:58 42° ENE 23:26:01 42° ENE
ERBS 4.3 23:24:40 10° NW 23:26:01 22° NW 23:26:01 22° NW
ATLAS CENTAUR R/B 3.2 23:30:19 18° E 23:30:19 18° E 23:31:58 10° ENE
USA 281 3.5 23:27:08 24° SE 23:31:10 63° ENE 23:37:39 10° NNW
Cosmos 1733 4.2 23:29:06 10° N 23:32:41 39° ENE 23:32:43 39° ENE
Meteor 2-4 Rocket 4.0 23:31:38 45° WSW 23:33:03 58° WNW 23:38:40 10° N
Cosmos 1943 Rocket 2.7 23:31:07 36° WSW 23:33:03 52° NW 23:38:33 10° NNE
Cosmos 2263 4.2 23:35:39 57° S 23:36:49 76° ESE 23:42:37 10° NNE
Cosmos 2150 Rocket 4.0 23:38:19 60° SSE 23:39:11 73° ESE 23:44:30 10° NNE
Okean 2 Rocket 3.5 23:35:18 10° N 23:39:37 52° ENE 23:40:15 47° ESE
CZ-4 R/B 4.3 23:34:56 10° NNE 23:39:42 49° E 23:40:22 45° SE
Cosmos 1066 Rocket 4.3 23:39:56 52° SSE 23:41:20 72° E 23:47:02 10° NNE
SL-16 R/B 3.6 23:38:19 15° SE 23:43:03 41° ENE 23:48:50 10° N
YAOGAN 11 4.0 23:43:10 70° ESE 23:43:31 76° ENE 23:47:50 10° N
Cosmos 1821 Rocket 4.2 23:37:57 10° NNW 23:44:13 59° W 23:45:52 45° SW
EO 1 Del DPAF 3.6 23:41:23 10° N 23:44:43 58° NW 23:44:43 58° NW
Cosmos 1867 3.5 23:50:03 57° S 23:50:57 68° SE 23:56:24 10° NE
SL-27 R/B 3.5 23:48:47 10° NNW 23:50:59 38° NNW 23:50:59 38° NNW
Cosmos 1934 Rocket 3.9 23:46:08 10° N 23:52:21 85° W 23:54:14 48° S
BREEZE-M R/B 4.1 23:54:53 37° SE 23:54:53 37° SE 23:59:16 10° ESE
BREEZE-M DEB (TANK) 4.3 23:44:29 10° WNW 23:52:56 39° WSW 23:52:56 39° WSW
